FW1203 Weather Reports


Display with metric or nautical units.
time (UTC)temp
F
wind
direction
speed
MPH
gust
MPH
rain 1hr
in
rain 24hr
in
rain mn
in
humidity
%
barometer
mb
20260508012833 48 0 0.0 0.0 0.00 0.05 0.05 89 1009.1
20260508012333 48 0 0.0 0.0 0.00 0.05 0.05 89 1009.0
20260508011832 48 0 0.0 0.0 0.00 0.05 0.05 89 1008.9
20260508011333 48 0 0.0 0.0 0.00 0.05 0.05 88 1009.0
20260508010833 48 0 0.0 0.0 0.00 0.05 0.05 88 1009.0
20260508010333 49 0 0.0 0.0 0.00 0.05 0.05 88 1009.0
20260508005833 49 0 0.0 0.0 0.00 0.05 0.05 88 1009.0
20260508005333 49 0 0.0 0.0 0.00 0.05 0.05 87 1008.9
20260508004833 49 0 0.0 0.0 0.00 0.05 0.05 87 1008.9
20260508004333 49 0 0.0 0.0 0.00 0.05 0.05 87 1009.0
20260508003833 50 0 0.0 0.0 0.00 0.05 0.05 86 1008.9
20260508003332 50 0 0.0 0.0 0.00 0.05 0.05 86 1008.9
20260508002833 50 0 0.0 0.0 0.00 0.05 0.05 86 1008.9
20260508002333 50 0 0.0 0.0 0.00 0.05 0.05 86 1008.9
20260508001833 51 0 0.0 0.0 0.00 0.05 0.05 85 1008.9
20260508001333 51 302 0.0 2.0 0.00 0.05 0.05 85 1008.9
20260508000833 51 302 0.0 3.0 0.00 0.05 0.05 85 1008.9
20260508000334 52 245 0.0 3.0 0.00 0.05 0.05 85 1008.9
20260507235833 52 0 0.0 0.0 0.00 0.05 0.05 86 1008.8
20260507235333 52 0 0.0 0.0 0.00 0.05 0.05 86 1008.8
20260507234833 52 0 0.0 0.0 0.00 0.05 0.05 86 1008.7
20260507234333 52 0 0.0 0.0 0.00 0.05 0.05 86 1008.7
20260507233833 52 0 0.0 0.0 0.00 0.05 0.05 85 1008.7
20260507233332 52 0 0.0 0.0 0.00 0.05 0.05 85 1008.8
20260507232833 52 0 0.0 0.0 0.00 0.05 0.05 85 1008.7
20260507232333 52 0 0.0 0.0 0.00 0.05 0.05 85 1008.7
20260507231833 51 0 0.0 0.0 0.00 0.05 0.05 86 1008.7
20260507231333 51 0 0.0 0.0 0.00 0.05 0.05 87 1008.7
20260507230833 51 0 0.0 0.0 0.00 0.05 0.05 87 1008.8
20260507230333 51 0 0.0 0.0 0.00 0.05 0.05 87 1008.9
20260507225833 51 0 0.0 0.0 0.00 0.05 0.05 87 1008.9
20260507225333 50 0 0.0 0.0 0.00 0.05 0.05 88 1008.9
20260507224833 50 0 0.0 0.0 0.00 0.05 0.05 88 1008.9
20260507224333 50 0 0.0 0.0 0.00 0.05 0.05 88 1008.9
20260507223832 50 0 0.0 0.0 0.00 0.05 0.05 89 1009.0
20260507223333 49 0 0.0 0.0 0.01 0.05 0.05 89 1009.1
20260507222833 49 0 0.0 0.0 0.01 0.05 0.05 90 1009.2
20260507222333 49 0 0.0 0.0 0.02 0.05 0.05 90 1009.2
20260507221833 49 0 0.0 0.0 0.03 0.05 0.05 91 1009.4
20260507221333 48 0 0.0 0.0 0.03 0.05 0.05 90 1009.4
20260507220833 48 0 0.0 0.0 0.03 0.05 0.05 90 1009.5
20260507220333 48 265 0.0 1.0 0.04 0.05 0.05 89 1009.7
20260507215833 48 265 0.0 1.0 0.04 0.05 0.05 90 1009.8
20260507215333 48 0 0.0 0.0 0.05 0.05 0.05 90 1009.8
20260507214833 48 0 0.0 0.0 0.05 0.05 0.05 89 1009.9
20260507214333 48 0 0.0 0.0 0.05 0.05 0.05 89 1010.1
20260507213833 47 217 0.0 1.0 0.05 0.05 0.05 89 1010.2
20260507213333 47 217 0.0 1.0 0.04 0.04 0.04 89 1010.2
20260507212833 47 217 0.0 1.0 0.04 0.04 0.04 87 1010.3
20260507212333 46 0 0.0 0.0 0.03 0.03 0.03 86 1010.4
20260507211833 47 217 0.0 1.0 0.02 0.02 0.02 85 1010.4
20260507211333 47 217 0.0 2.0 0.02 0.02 0.02 83 1010.2
20260507210833 47 217 0.0 2.0 0.02 0.02 0.02 82 1010.1
20260507210333 47 106 0.0 2.0 0.01 0.01 0.01 80 1009.9
20260507205833 48 59 0.0 2.0 0.01 0.01 0.01 78 1010.0
20260507205333 48 332 0.0 5.0 0.00 0.00 0.00 76 1009.9
20260507204833 48 169 1.0 5.0 0.00 0.00 0.00 76 1009.8
20260507204333 48 145 0.0 5.0 0.00 0.00 0.00 78 1009.6
20260507203833 47 219 1.0 5.0 0.00 0.00 0.00 78 1009.8
20260507203333 47 288 0.0 3.0 0.00 0.00 0.00 77 1010.0
20260507202833 47 12 0.0 3.0 0.00 0.00 0.00 77 1010.1
20260507202333 47 192 0.0 3.0 0.00 0.00 0.00 78 1010.2
20260507201833 47 167 0.0 2.0 0.00 0.00 0.00 79 1010.2
20260507201333 46 167 0.0 2.0 0.00 0.00 0.00 78 1010.3
20260507200833 46 347 0.0 3.0 0.00 0.00 0.00 79 1010.3
20260507200333 46 175 1.0 3.0 0.00 0.00 0.00 80 1010.4
20260507195833 46 175 0.0 7.0 0.00 0.00 0.00 80 1010.4
20260507195333 46 191 1.0 7.0 0.00 0.00 0.00 80 1010.4
20260507194833 46 185 1.0 6.0 0.00 0.00 0.00 79 1010.5
20260507193833 47 191 0.0 5.0 0.00 0.00 0.00 77 1010.7
20260507193333 47 138 1.0 4.0 0.00 0.00 0.00 77 1010.9
20260507192833 48 214 0.0 4.0 0.00 0.00 0.00 78 1011.0
20260507192333 48 214 0.0 4.0 0.00 0.00 0.00 77 1011.0
20260507191833 48 144 0.0 5.0 0.00 0.00 0.00 74 1011.3
20260507191333 49 155 0.0 7.0 0.00 0.00 0.00 73 1011.4
20260507190833 49 181 1.0 7.0 0.00 0.00 0.00 72 1011.2
20260507190333 50 242 0.0 6.0 0.00 0.00 0.00 71 1011.0
20260507185833 50 195 1.0 8.0 0.00 0.00 0.00 69 1011.1
20260507185333 50 148 1.0 8.0 0.00 0.00 0.00 68 1010.9
20260507184833 50 141 0.0 6.0 0.00 0.00 0.00 68 1010.8
20260507184333 51 160 1.0 6.0 0.00 0.00 0.00 67 1010.9
20260507183833 51 166 1.0 4.0 0.00 0.00 0.00 65 1011.1
20260507183333 52 195 1.0 6.0 0.00 0.00 0.00 65 1011.0
20260507182833 52 167 1.0 6.0 0.00 0.00 0.00 63 1011.0
20260507182333 52 43 1.0 4.0 0.00 0.00 0.00 62 1011.1
20260507181833 52 119 0.0 2.0 0.00 0.00 0.00 64 1011.2
20260507181333 52 109 0.0 3.0 0.00 0.00 0.00 62 1011.4
20260507180833 52 189 1.0 3.0 0.00 0.00 0.00 63 1011.4
20260507180333 52 125 0.0 3.0 0.00 0.00 0.00 61 1011.4
20260507175833 53 23 0.0 4.0 0.00 0.00 0.00 61 1011.6
20260507175333 53 103 1.0 5.0 0.00 0.00 0.00 61 1011.5
20260507174833 53 178 1.0 7.0 0.00 0.00 0.00 61 1011.4
20260507174332 53 223 1.0 7.0 0.00 0.00 0.00 60 1011.7
20260507173833 54 84 1.0 5.0 0.00 0.00 0.00 61 1011.7
20260507173333 54 102 1.0 5.0 0.00 0.00 0.00 59 1012.0
20260507172833 55 173 1.0 5.0 0.00 0.00 0.00 59 1012.0
20260507172333 56 194 1.0 3.0 0.00 0.00 0.00 59 1012.1
20260507171833 57 81 1.0 4.0 0.00 0.00 0.00 56 1012.2
20260507171332 58 175 1.0 6.0 0.00 0.00 0.00 54 1012.3
20260507170833 59 5 1.0 6.0 0.00 0.00 0.00 46 1012.4
20260507170333 59 253 0.0 3.0 0.00 0.00 0.00 44 1012.4
20260507165833 59 244 0.0 4.0 0.00 0.00 0.00 43 1012.5
20260507165333 59 165 1.0 4.0 0.00 0.00 0.00 41 1012.5
20260507164833 59 222 0.0 1.0 0.00 0.00 0.00 45 1012.5
20260507164333 59 222 0.0 4.0 0.00 0.00 0.00 44 1012.6
20260507163833 59 264 0.0 4.0 0.00 0.00 0.00 43 1012.8
20260507163333 59 264 1.0 3.0 0.00 0.00 0.00 44 1012.9
20260507162833 58 181 0.0 3.0 0.00 0.00 0.00 42 1012.9
20260507162333 58 272 1.0 3.0 0.00 0.00 0.00 43 1013.0
20260507161833 58 176 0.0 3.0 0.00 0.00 0.00 45 1013.2
20260507160833 58 264 1.0 3.0 0.00 0.00 0.00 44 1013.2
20260507160333 58 229 1.0 4.0 0.00 0.00 0.00 44 1013.2
20260507155833 58 186 1.0 4.0 0.00 0.00 0.00 45 1013.1
20260507155333 57 134 1.0 4.0 0.00 0.00 0.00 44 1013.4
20260507154833 57 282 1.0 3.0 0.00 0.00 0.00 46 1013.5
20260507154333 56 252 1.0 4.0 0.00 0.00 0.00 48 1013.7
20260507153833 56 234 1.0 4.0 0.00 0.00 0.00 45 1013.8
20260507153333 56 250 1.0 7.0 0.00 0.00 0.00 46 1013.9
20260507152833 55 240 1.0 7.0 0.00 0.00 0.00 43 1014.0
20260507152333 55 253 1.0 3.0 0.00 0.00 0.00 46 1014.0
20260507151833 54 203 1.0 3.0 0.00 0.00 0.00 47 1014.1
20260507151333 54 250 1.0 3.0 0.00 0.00 0.00 46 1014.1
20260507150833 54 219 1.0 2.0 0.00 0.00 0.00 47 1014.2
20260507150333 53 205 0.0 3.0 0.00 0.00 0.00 49 1014.2
20260507145833 53 244 1.0 4.0 0.00 0.00 0.00 48 1014.2
20260507145333 52 270 1.0 4.0 0.00 0.00 0.00 50 1014.2
20260507144833 52 0 0.0 0.0 0.00 0.00 0.00 52 1014.2
20260507144333 52 290 0.0 4.0 0.00 0.00 0.00 51 1014.3
20260507143833 52 290 1.0 4.0 0.00 0.00 0.00 50 1014.4
20260507143333 51 251 0.0 2.0 0.00 0.00 0.00 53 1014.4
20260507142833 51 258 0.0 2.0 0.00 0.00 0.00 53 1014.5
20260507142333 50 258 0.0 2.0 0.00 0.00 0.00 54 1014.5
20260507141833 50 259 0.0 2.0 0.00 0.00 0.00 55 1014.5
20260507141333 50 250 0.0 5.0 0.00 0.00 0.00 55 1014.4
20260507140833 49 230 1.0 5.0 0.00 0.00 0.00 53 1014.5
20260507140333 49 258 0.0 3.0 0.00 0.00 0.00 59 1014.6
20260507135833 48 258 0.0 3.0 0.00 0.00 0.00 57 1014.7
20260507135332 48 259 0.0 2.0 0.00 0.00 0.00 57 1014.8
20260507134833 48 257 0.0 2.0 0.00 0.00 0.00 58 1014.9
20260507134332 47 256 0.0 1.0 0.00 0.00 0.00 58 1015.0
20260507133833 47 0 0.0 0.0 0.00 0.00 0.00 56 1015.0
20260507133333 47 243 0.0 2.0 0.00 0.00 0.00 56 1014.9
20260507132833 47 243 0.0 2.0 0.00 0.00 0.00 57 1014.9
20260507132333 47 0 0.0 0.0 0.00 0.00 0.00 58 1014.9
20260507131833 47 0 0.0 0.0 0.00 0.00 0.00 59 1014.9
20260507131333 47 0 0.0 0.0 0.00 0.00 0.00 58 1014.8
20260507130833 47 290 0.0 1.0 0.00 0.00 0.00 60 1014.7
20260507130333 46 290 0.0 3.0 0.00 0.00 0.00 61 1014.7
20260507125833 46 294 0.0 3.0 0.00 0.00 0.00 62 1014.7
20260507125333 45 355 0.0 1.0 0.00 0.00 0.00 66 1014.6
20260507124833 44 355 0.0 2.0 0.00 0.00 0.00 69 1014.7
20260507124333 43 282 0.0 2.0 0.00 0.00 0.00 70 1014.8
20260507123833 42 286 0.0 2.0 0.00 0.00 0.00 73 1014.7
20260507123333 41 286 0.0 1.0 0.00 0.00 0.00 77 1014.6
20260507122834 39 0 0.0 0.0 0.00 0.00 0.00 82 1014.7
20260507122333 38 0 0.0 0.0 0.00 0.00 0.00 86 1014.6
20260507121833 37 0 0.0 0.0 0.00 0.00 0.00 89 1014.5
20260507121333 36 0 0.0 0.0 0.00 0.00 0.00 89 1014.4
20260507120833 36 0 0.0 0.0 0.00 0.00 0.00 90 1014.4
20260507120332 35 0 0.0 0.0 0.00 0.00 0.00 90 1014.4
20260507115833 34 0 0.0 0.0 0.00 0.00 0.00 90 1014.5
20260507115333 34 0 0.0 0.0 0.00 0.00 0.00 89 1014.5
20260507114833 34 0 0.0 0.0 0.00 0.00 0.00 89 1014.4
20260507114333 34 0 0.0 0.0 0.00 0.00 0.00 89 1014.4
20260507113833 33 0 0.0 0.0 0.00 0.00 0.00 89 1014.4
20260507113333 33 0 0.0 0.0 0.00 0.00 0.00 89 1014.5
20260507112833 33 0 0.0 0.0 0.00 0.00 0.00 88 1014.4
20260507112333 33 0 0.0 0.0 0.00 0.00 0.00 88 1014.4
20260507111835 33 0 0.0 0.0 0.00 0.00 0.00 88 1014.4
20260507111333 33 0 0.0 0.0 0.00 0.00 0.00 88 1014.3
20260507110833 33 0 0.0 0.0 0.00 0.00 0.00 88 1014.3
20260507110333 33 0 0.0 0.0 0.00 0.00 0.00 87 1014.2
20260507105333 33 0 0.0 0.0 0.00 0.00 0.00 87 1014.2
20260507104833 33 0 0.0 0.0 0.00 0.00 0.00 87 1014.2
20260507104333 33 0 0.0 0.0 0.00 0.00 0.00 87 1014.2
20260507103833 33 0 0.0 0.0 0.00 0.00 0.00 87 1014.3
20260507103333 33 0 0.0 0.0 0.00 0.00 0.00 87 1014.3
20260507102833 33 0 0.0 0.0 0.00 0.00 0.00 87 1014.2
20260507102333 33 0 0.0 0.0 0.00 0.00 0.00 87 1014.2
20260507101833 33 0 0.0 0.0 0.00 0.00 0.00 86 1014.1
20260507101333 33 0 0.0 0.0 0.00 0.00 0.00 86 1014.2
20260507100833 33 0 0.0 0.0 0.00 0.00 0.00 86 1014.1
20260507100333 33 0 0.0 0.0 0.00 0.00 0.00 86 1014.2
20260507095833 33 0 0.0 0.0 0.00 0.00 0.00 86 1014.3
20260507095333 33 0 0.0 0.0 0.00 0.00 0.00 85 1014.3
20260507094833 33 0 0.0 0.0 0.00 0.00 0.00 85 1014.3
20260507094333 33 0 0.0 0.0 0.00 0.00 0.00 85 1014.4
20260507093833 33 0 0.0 0.0 0.00 0.00 0.00 85 1014.3
20260507093333 34 0 0.0 0.0 0.00 0.00 0.00 85 1014.3
20260507092833 34 0 0.0 0.0 0.00 0.00 0.00 85 1014.3
20260507092332 34 0 0.0 0.0 0.00 0.00 0.00 85 1014.2
20260507091832 34 0 0.0 0.0 0.00 0.00 0.00 84 1014.1
20260507091333 34 0 0.0 0.0 0.00 0.00 0.00 84 1014.2
20260507090833 34 0 0.0 0.0 0.00 0.00 0.00 84 1014.2
20260507090333 34 0 0.0 0.0 0.00 0.00 0.00 84 1014.3
20260507085833 34 0 0.0 0.0 0.00 0.00 0.00 84 1014.4
20260507085333 34 0 0.0 0.0 0.00 0.00 0.00 84 1014.3
20260507084833 34 0 0.0 0.0 0.00 0.00 0.00 84 1014.2
20260507084333 34 0 0.0 0.0 0.00 0.00 0.00 83 1014.2
20260507083833 34 0 0.0 0.0 0.00 0.00 0.00 83 1014.2
20260507083333 35 0 0.0 0.0 0.00 0.00 0.00 83 1014.2
20260507082833 35 0 0.0 0.0 0.00 0.00 0.00 82 1014.2
20260507082332 35 0 0.0 0.0 0.00 0.00 0.00 82 1014.2
20260507081833 35 0 0.0 0.0 0.00 0.00 0.00 82 1014.2
20260507081333 35 0 0.0 0.0 0.00 0.00 0.00 82 1014.2
20260507080833 35 0 0.0 0.0 0.00 0.00 0.00 82 1014.1
20260507080333 35 0 0.0 0.0 0.00 0.00 0.00 81 1014.2
20260507075833 36 0 0.0 0.0 0.00 0.00 0.00 81 1014.2
20260507075333 36 0 0.0 0.0 0.00 0.00 0.00 80 1014.3
20260507074833 36 0 0.0 0.0 0.00 0.00 0.00 80 1014.3
20260507074333 36 0 0.0 0.0 0.00 0.00 0.00 80 1014.2
20260507073833 36 0 0.0 0.0 0.00 0.00 0.00 79 1014.2
20260507073333 36 0 0.0 0.0 0.00 0.00 0.00 79 1014.3
20260507072832 36 0 0.0 0.0 0.00 0.00 0.00 79 1014.4
20260507072333 36 0 0.0 0.0 0.00 0.00 0.00 78 1014.4
20260507071833 37 0 0.0 0.0 0.00 0.00 0.00 78 1014.5
20260507071333 37 0 0.0 0.0 0.00 0.00 0.00 78 1014.5
20260507070833 37 0 0.0 0.0 0.00 0.00 0.00 77 1014.5
20260507070333 37 0 0.0 0.0 0.00 0.00 0.00 77 1014.6
20260507065833 37 0 0.0 0.0 0.00 0.00 0.00 77 1014.5
20260507065333 37 0 0.0 0.0 0.00 0.00 0.00 76 1014.5
20260507064833 38 0 0.0 0.0 0.00 0.00 0.00 76 1014.5
20260507064333 38 0 0.0 0.0 0.00 0.00 0.00 75 1014.6
20260507063833 38 0 0.0 0.0 0.00 0.00 0.00 75 1014.6
20260507063333 38 0 0.0 0.0 0.00 0.00 0.00 74 1014.6
20260507062832 38 0 0.0 0.0 0.00 0.00 0.00 73 1014.6
20260507062333 38 0 0.0 0.0 0.00 0.00 0.00 73 1014.6
20260507061833 39 0 0.0 0.0 0.00 0.00 0.00 73 1014.7
20260507061333 39 0 0.0 0.0 0.00 0.00 0.00 72 1014.8
20260507060833 39 0 0.0 0.0 0.00 0.00 0.00 71 1014.7
20260507060333 39 0 0.0 0.0 0.00 0.00 0.00 70 1014.7
20260507055833 40 0 0.0 0.0 0.00 0.00 0.00 70 1014.6
20260507055333 40 0 0.0 0.0 0.00 0.00 0.00 69 1014.6
20260507054833 40 0 0.0 0.0 0.00 0.00 0.00 68 1014.5
20260507054333 40 0 0.0 0.0 0.00 0.00 0.00 67 1014.6
20260507053833 41 0 0.0 0.0 0.00 0.00 0.00 67 1014.5
20260507053333 41 0 0.0 0.0 0.00 0.00 0.00 66 1014.6
20260507052833 41 0 0.0 0.0 0.00 0.00 0.00 65 1014.5
20260507052333 42 0 0.0 0.0 0.00 0.00 0.00 65 1014.6
20260507051833 42 0 0.0 0.0 0.00 0.00 0.00 64 1014.6
20260507051333 42 0 0.0 0.0 0.00 0.00 0.00 63 1014.6
20260507050833 43 0 0.0 0.0 0.00 0.00 0.00 62 1014.6
20260507050333 43 0 0.0 0.0 0.00 0.00 0.00 61 1014.7
20260507045833 43 0 0.0 0.0 0.00 0.00 0.00 61 1014.6
20260507045333 44 0 0.0 0.0 0.00 0.00 0.00 60 1014.7
20260507044833 44 0 0.0 0.0 0.00 0.00 0.00 60 1014.6
20260507044333 44 0 0.0 0.0 0.00 0.00 0.00 59 1014.6
20260507043833 44 0 0.0 0.0 0.00 0.00 0.00 59 1014.5
20260507043333 45 0 0.0 0.0 0.00 0.00 0.00 58 1014.5
20260507042833 45 0 0.0 0.0 0.00 0.00 0.00 58 1014.4
20260507042333 45 0 0.0 0.0 0.00 0.00 0.00 58 1014.4
20260507041833 45 0 0.0 0.0 0.00 0.00 0.00 57 1014.4
20260507041332 45 286 0.0 1.0 0.00 0.00 0.00 57 1014.5
20260507040833 46 286 0.0 3.0 0.00 0.00 0.00 56 1014.5
20260507040333 46 285 0.0 3.0 0.00 0.00 0.00 55 1014.5
20260507035833 46 273 0.0 1.0 0.00 0.00 0.00 56 1014.6
20260507035333 46 273 0.0 1.0 0.00 0.00 0.00 56 1014.6
20260507034833 46 0 0.0 0.0 0.00 0.00 0.00 56 1014.6
20260507034333 46 0 0.0 0.0 0.00 0.00 0.00 55 1014.6
20260507033833 46 0 0.0 0.0 0.00 0.00 0.00 55 1014.6
20260507033333 46 0 0.0 0.0 0.00 0.00 0.00 54 1014.6
20260507032833 47 264 0.0 1.0 0.00 0.00 0.00 54 1014.6
20260507032333 47 264 0.0 2.0 0.00 0.00 0.00 54 1014.5
20260507031833 47 269 0.0 2.0 0.00 0.00 0.00 54 1014.5
20260507031333 47 269 0.0 2.0 0.00 0.00 0.00 54 1014.5
20260507030833 47 286 0.0 1.0 0.00 0.00 0.00 53 1014.5
20260507030333 47 300 0.0 3.0 0.00 0.00 0.00 53 1014.5
20260507025833 47 300 0.0 3.0 0.00 0.00 0.00 52 1014.5
20260507025333 48 0 0.0 0.0 0.00 0.00 0.00 52 1014.5
20260507024833 48 284 0.0 1.0 0.00 0.00 0.00 51 1014.5
20260507024333 48 284 0.0 1.0 0.00 0.00 0.00 52 1014.4
20260507023833 48 284 0.0 2.0 0.00 0.00 0.00 51 1014.3
20260507023333 48 283 0.0 2.0 0.00 0.00 0.00 51 1014.3
20260507022833 48 284 0.0 2.0 0.00 0.00 0.00 50 1014.2
20260507022333 48 285 0.0 2.0 0.00 0.00 0.00 51 1014.1
20260507021833 48 284 0.0 2.0 0.00 0.00 0.00 51 1014.1
20260507021332 49 284 0.0 3.0 0.00 0.00 0.00 51 1014.0
20260507020833 49 298 0.0 3.0 0.00 0.00 0.00 50 1013.9
20260507020333 49 297 0.0 2.0 0.00 0.00 0.00 50 1013.9
20260507015833 49 248 0.0 1.0 0.00 0.00 0.00 50 1013.9
20260507015333 49 248 0.0 2.0 0.00 0.00 0.00 50 1013.9
20260507014833 49 247 0.0 3.0 0.00 0.00 0.00 49 1013.7
20260507014333 50 244 0.0 3.0 0.00 0.00 0.00 49 1013.8
20260507013833 50 240 0.0 3.0 0.00 0.00 0.00 49 1013.7
20260507013332 50 288 1.0 3.0 0.00 0.00 0.00 48 1013.5